Location: Foulognes
(49.1413°N, 0.8183°W)
Time: 00:05:00
(UTC+00:00)

STARLINK-30 - Pass Details

Date: 21 October 2019
Orbit: 548 x 551 km, 53.0° (Epoch: 20 November)

Event Time Altitude Azimuth Distance (km) Brightness Sun altitude
Rises 18:26:10 0° 279° (W) 2,718 9.0 -14.4°
Reaches altitude 10° 18:28:27 10° 286° (WNW) 1,825 7.5 -14.8°
Maximum altitude 18:32:29 48° 1° (N) 724 4.2 -15.4°
Enters shadow 18:34:28 26° 62° (ENE) 1,097 4.6 -15.7°
